Wind_Speed
47 46 44 43 42 40 39 37 36 34 32 30 30 29 29 29 28 28 27 26 25 25 24 24 24 23 23 23 23 23 22 22 22 22 21 20 20 19 18 18 18 17 17 16 16 15 15 14 13 13 12 11 10 10 10 9 9 8 8 8 8 9 9 9 9 10 10 10 10 9 10 10 9 10 11 11 12 12 11 12 12 13 13 14 14 14 13 13
47 46 45 44 42 41 40 38 37 35 33 31 30 30 30 30 29 29 28 27 26 25 25 24 24 24 23 23 24 23 23 23 23 23 22 21 20 20 19 19 18 17 17 16 16 15 14 14 13 13 12 11 11 10 10 9 9 9 9 9 9 9 9 9 10 11 11 11 11 11 11 11 10 10 11 12 12 13 13 13 14 14 15 15 15 15 15 15
48 47 46 45 43 42 41 39 37 36 34 32 31 31 31 31 30 30 29 28 27 26 25 25 25 25 24 24 24 24 24 24 24 23 23 22 21 21 20 19 18 18 17 16 16 15 14 14 14 13 12 11 11 11 10 10 10 10 10 10 10 10 9 10 10 11 12 12 12 11 12 11 11 11 12 12 13 14 14 14 14 15 16 16 16 16 16 17
49 48 47 46 45 43 42 41 39 37 35 34 33 32 32 32 32 31 30 29 28 27 26 26 26 26 25 25 25 25 25 25 25 24 23 23 22 21 20 20 19 18 17 17 16 15 15 15 14 13 12 12 12 11 11 11 11 11 11 10 10 9 9 10 10 11 12 13 12 12 12 12 12 12 13 13 14 14 15 15 15 16 16 17 17 17 17 18
50 49 48 47 46 45 44 42 40 39 37 35 34 33 33 33 33 32 31 31 30 28 27 27 27 27 27 26 26 26 26 27 26 25 24 24 23 22 21 20 19 18 18 17 17 16 15 15 14 14 13 13 12 12 12 11 11 10 10 9 9 9 9 9 10 11 12 13 12 12 12 12 12 13 13 14 15 15 16 17 17 17 17 17 18 17 18 18
51 50 49 48 47 46 44 43 42 40 38 36 35 35 34 34 34 34 33 32 31 30 29 28 28 28 28 28 28 28 28 28 27 26 25 25 24 23 22 21 20 19 18 18 17 17 16 15 14 14 14 13 13 12 12 11 10 10 9 9 9 9 9 10 10 11 12 12 12 12 12 12 12 13 14 15 15 16 17 18 19 20 19 19 18 18 18 18
51 50 50 48 47 46 45 44 42 40 39 38 37 36 36 35 35 35 34 34 33 32 30 29 29 29 29 29 29 29 29 29 28 27 26 26 26 25 23 22 21 20 19 19 18 17 16 15 15 15 14 14 13 13 12 12 11 10 10 10 9 10 10 10 10 11 11 12 12 12 12 12 12 13 15 16 16 17 18 19 21 22 22 21 20 19 19 19
52 51 50 49 48 47 46 45 43 41 40 39 38 37 37 36 36 36 35 35 35 34 32 31 30 30 30 30 31 31 31 30 29 28 28 28 27 26 25 24 22 21 20 20 19 18 17 17 16 16 16 15 15 14 13 13 12 11 11 11 11 11 11 11 10 10 11 11 12 12 12 12 13 14 17 18 17 18 19 20 21 22 23 22 22 21 21 20
53 53 52 51 50 49 47 46 44 43 41 40 39 38 38 38 38 37 37 36 36 35 34 33 32 31 31 32 32 33 33 32 31 30 30 29 29 28 27 25 24 23 22 21 20 20 19 18 18 18 17 17 16 15 15 14 14 13 13 13 12 12 13 12 11 10 11 11 11 12 13 13 14 15 19 20 18 19 19 20 21 22 23 23 23 23 22 21
55 54 53 52 51 51 49 48 46 45 43 42 41 40 39 39 39 39 38 38 37 37 36 35 33 32 32 33 33 34 34 34 33 32 31 31 30 29 29 27 26 25 24 23 22 21 21 21 20 20 19 18 18 17 16 16 16 15 15 15 15 14 14 14 13 12 11 12 12 13 13 14 15 17 20 21 19 20 20 21 22 22 23 23 23 23 23 22
56 55 55 54 53 52 51 50 48 47 45 44 43 42 41 41 40 40 40 40 39 38 38 37 35 33 33 33 34 35 35 35 35 33 32 32 32 31 30 29 28 27 26 25 24 23 23 22 22 21 20 20 19 19 18 18 17 17 17 17 17 17 17 16 16 14 14 14 14 15 15 15 16 18 21 21 20 21 21 22 23 23 23 23 23 23 22 22
57 56 56 55 55 54 53 52 50 49 48 46 45 44 43 42 42 42 42 41 41 40 39 38 37 35 34 34 34 36 37 37 36 35 34 33 33 32 31 30 29 28 28 27 27 26 25 24 24 23 22 21 21 20 20 19 19 19 19 19 19 19 18 18 18 16 17 17 17 18 16 16 19 20 21 22 22 23 22 23 23 23 23 23 23 23 22 22
56 56 56 56 55 55 54 53 52 51 50 48 47 46 45 44 43 43 42 42 42 42 41 40 39 37 36 35 35 37 38 38 37 37 35 34 34 33 33 32 31 30 30 29 28 28 27 26 25 25 24 23 22 21 21 20 20 20 20 21 21 20 19 19 20 19 20 19 19 21 18 16 21 22 21 23 24 24 24 24 24 24 24 23 24 23 23 23
55 55 56 56 56 55 55 54 53 52 51 50 49 48 47 45 45 44 43 43 43 43 42 42 41 39 38 36 36 38 39 39 39 38 37 36 36 35 34 33 33 32 31 31 30 29 28 28 27 26 26 25 24 23 22 21 21 21 22 22 22 21 21 21 22 21 22 22 22 24 20 17 22 24 23 24 25 25 25 25 25 24 24 24 24 24 24 25
52 53 54 55 55 55 55 54 54 53 52 51 50 49 48 47 46 45 45 44 44 44 43 43 42 41 39 38 37 38 39 39 40 39 39 38 37 37 36 35 35 34 33 33 32 31 30 29 28 28 27 26 25 24 23 23 22 23 23 23 23 22 22 22 22 22 23 24 24 26 24 20 22 26 26 27 27 27 26 26 26 25 25 24 24 25 26 27
48 50 51 52 53 53 54 54 53 53 53 52 51 50 49 48 47 46 46 45 45 44 44 44 43 42 41 40 38 38 39 40 40 41 40 40 39 39 38 37 37 36 35 35 34 33 32 31 30 29 28 27 26 25 24 24 24 25 25 23 22 22 22 22 23 24 25 27 27 29 28 23 23 27 29 29 29 28 28 27 27 27 26 25 26 27 27 28
46 47 48 48 50 51 51 52 52 52 52 52 52 51 51 50 48 48 47 46 46 45 45 45 44 43 43 42 40 40 40 40 41 41 42 42 41 41 40 40 39 38 37 36 36 35 34 33 32 30 29 28 27 27 27 26 26 26 25 23 23 24 24 24 25 26 27 29 30 30 30 26 27 29 29 31 31 30 29 29 29 28 28 28 28 28 28 28
46 46 47 47 47 48 48 49 50 51 51 51 52 52 51 51 50 49 49 48 47 47 46 46 45 45 44 43 42 42 41 40 41 42 43 44 44 43 42 41 41 40 39 39 38 36 35 34 33 32 31 29 29 29 29 28 27 27 26 25 25 25 25 25 26 28 29 30 32 32 31 29 30 30 30 32 33 31 31 31 30 30 30 30 30 30 29 29
46 46 46 46 46 47 47 47 48 49 50 51 51 51 51 51 51 51 50 50 49 49 49 47 47 46 45 43 43 43 43 42 42 43 45 45 46 46 45 44 43 43 42 41 40 38 37 36 35 34 31 31 32 32 31 29 28 28 28 28 28 27 27 27 28 29 31 32 33 33 33 32 32 31 32 34 34 33 32 32 32 32 32 31 31 30 29 29
48 47 47 46 46 46 46 47 48 48 49 50 50 51 51 51 51 51 51 50 50 50 50 49 48 47 47 45 45 45 45 45 44 44 46 47 48 48 47 47 46 45 44 43 42 41 40 39 37 34 33 34 34 33 31 30 30 30 30 30 30 29 28 28 30 31 33 34 34 34 35 35 34 33 33 35 35 34 34 34 34 33 32 32 31 29 28 28
50 49 48 47 47 46 46 47 48 48 48 49 49 50 50 50 51 51 51 50 51 51 51 51 50 50 49 48 47 47 47 47 46 46 46 48 49 50 50 49 48 47 45 44 44 43 43 41 38 35 35 36 35 34 33 32 32 33 32 32 32 32 30 30 32 34 35 37 36 36 37 36 36 36 35 35 36 36 36 37 35 33 32 32 30 28 28 28
53 52 50 49 48 47 47 47 48 47 47 48 47 48 48 49 50 50 50 51 51 52 52 52 52 51 51 50 49 49 48 48 48 47 47 48 50 51 51 50 50 49 48 47 47 46 45 42 38 37 38 38 36 35 34 34 34 34 34 34 34 33 33 33 34 35 37 39 38 39 39 38 38 38 37 36 37 37 37 37 35 32 30 30 29 28 28 27
55 54 53 51 50 49 48 48 47 47 46 47 46 46 47 47 48 49 50 51 51 51 52 52 52 52 51 51 50 50 50 49 49 49 49 49 50 52 53 52 52 52 51 50 49 48 46 43 41 40 40 38 38 37 37 36 36 36 36 36 36 35 35 36 36 37 38 40 41 42 43 42 41 40 38 37 38 38 38 37 34 31 29 29 29 28 27 26
57 56 55 54 52 51 50 49 48 47 47 46 46 46 46 47 47 48 49 51 52 51 52 52 52 52 51 51 51 51 51 51 51 51 50 51 52 53 54 54 54 54 53 52 50 50 48 45 44 42 40 40 39 38 38 38 38 38 38 37 37 36 37 38 39 39 40 41 43 45 47 46 43 41 38 37 39 40 38 36 33 30 30 30 28 27 26 27
58 58 57 56 55 53 52 50 49 48 48 47 47 47 48 47 47 48 49 52 52 51 51 52 52 51 51 51 51 51 51 51 51 51 52 52 52 54 55 56 56 55 54 53 52 51 49 47 45 42 41 40 40 39 39 40 40 39 38 38 38 39 39 40 41 42 42 43 44 46 51 50 45 42 39 37 39 39 36 33 31 30 30 30 28 27 27 29
59 59 58 58 58 56 55 52 50 50 49 48 49 49 49 49 49 49 50 53 54 51 49 51 51 51 50 51 50 50 51 51 50 51 52 52 53 54 55 56 57 56 54 53 53 52 49 47 45 43 41 41 41 41 41 41 41 41 40 39 40 40 41 41 42 43 45 46 47 48 52 53 49 44 40 39 39 37 33 29 27 28 29 29 28 27 28 30
60 59 59 58 58 57 56 55 54 53 51 50 51 51 51 50 51 51 51 55 56 51 48 50 50 50 49 49 49 49 51 49 48 50 51 51 52 53 54 55 55 55 53 52 53 52 49 46 44 43 43 43 43 43 41 41 42 42 41 41 41 42 42 43 43 44 46 47 50 52 51 54 53 46 41 41 39 36 30 25 25 27 28 28 27 29 30 32
60 59 59 58 58 58 57 57 56 55 54 54 53 53 53 52 52 52 53 56 57 52 49 50 50 50 49 49 49 50 50 48 47 49 49 50 51 52 53 53 53 52 51 52 53 52 50 48 46 45 45 45 44 42 42 42 43 42 42 43 43 43 43 44 44 46 47 50 54 53 51 54 55 49 45 43 39 36 30 24 24 26 26 27 29 31 33 34
59 59 59 58 58 57 57 57 56 56 58 57 56 56 56 55 55 55 56 58 57 54 52 50 50 51 51 50 50 50 50 50 49 48 48 50 51 51 52 51 51 51 51 52 52 52 51 50 48 47 46 45 44 43 43 43 43 44 44 45 44 44 44 45 46 48 50 54 55 53 50 53 56 53 48 43 39 38 33 28 28 29 29 29 31 33 35 37
58 59 60 61 59 57 56 56 56 59 60 59 59 59 58 59 58 58 60 60 57 56 55 53 51 51 51 51 51 51 51 50 50 49 49 50 50 51 51 51 51 51 52 52 52 52 52 51 49 48 46 44 44 44 44 44 45 45 45 45 45 46 46 47 49 49 52 57 55 52 51 53 57 56 48 43 42 40 36 33 32 33 33 33 34 36 38 39
53 55 58 59 58 57 56 55 57 60 61 61 62 61 61 61 61 62 64 60 58 60 59 54 52 51 51 52 51 51 52 51 50 50 50 50 50 51 51 51 51 52 52 52 51 51 51 50 49 47 46 45 45 45 46 46 46 46 45 46 46 47 48 49 51 51 53 56 54 52 53 54 59 57 50 47 44 40 38 37 37 38 38 39 39 40 40 41
54 55 56 56 56 58 56 54 57 61 63 63 63 64 64 63 65 67 65 60 61 63 61 56 54 53 52 53 52 52 52 52 52 51 51 50 50 50 50 50 49 50 51 51 50 51 50 49 49 49 48 48 47 47 47 47 47 46 45 45 46 48 49 52 53 53 54 55 53 54 56 58 60 55 50 49 44 39 39 40 41 42 44 45 44 43 42 40
53 54 55 55 54 54 53 53 58 62 63 64 65 65 64 65 66 66 62 62 64 64 61 59 58 56 56 55 55 54 54 54 53 53 53 53 52 51 51 51 51 52 52 51 51 51 51 51 51 51 51 50 49 48 47 47 45 45 45 46 47 49 52 54 55 55 55 55 54 56 59 60 59 53 48 45 41 39 40 43 46 47 47 47 44 41 39 37
49 53 54 52 51 52 52 52 56 60 62 63 63 64 66 67 64 60 59 61 63 62 61 62 61 59 59 58 56 56 55 56 55 55 55 55 55 54 54 54 53 53 53 53 53 53 53 53 52 51 51 49 48 47 47 46 46 47 48 49 51 52 53 54 54 55 57 57 57 59 60 59 56 52 47 43 40 41 42 45 49 49 48 45 41 38 36 36
45 51 53 51 52 53 53 53 55 58 60 62 64 66 68 68 62 58 58 57 58 59 60 63 64 63 62 60 59 59 58 58 57 57 57 57 57 56 55 54 54 54 53 54 55 54 55 55 52 51 50 49 48 48 48 48 49 50 51 53 55 53 51 51 54 56 58 60 61 60 60 57 53 51 47 45 44 45 46 47 48 48 46 43 40 38 38 39
43 47 50 51 53 54 52 51 52 56 58 59 65 70 68 64 58 57 56 55 55 56 57 60 63 62 62 61 61 61 61 61 60 60 59 58 58 57 56 55 55 55 55 55 55 55 55 55 53 52 52 51 51 51 51 51 52 54 55 56 55 52 52 53 56 58 60 63 63 61 59 56 53 49 46 47 48 48 49 49 47 44 42 43 43 42 42 42
46 46 47 48 51 53 54 51 51 56 59 61 66 67 64 60 57 55 55 55 56 55 56 59 60 59 60 60 60 60 61 62 63 63 62 61 61 59 57 57 56 56 55 55 55 55 56 56 55 55 54 53 53 53 54 54 55 57 58 56 53 53 56 57 59 60 61 63 63 61 59 57 54 49 46 48 51 50 50 49 45 39 39 43 44 44 45 44
53 50 48 45 46 50 52 53 55 57 59 64 68 65 62 60 59 59 59 59 59 59 59 60 60 59 59 58 57 58 61 63 64 64 64 64 65 62 60 59 58 57 56 55 56 56 57 58 57 57 57 56 56 56 57 58 59 59 58 56 56 57 60 59 59 60 60 62 63 61 60 58 52 49 48 50 50 49 48 47 43 37 39 43 44 45 45 43
60 58 52 46 45 47 48 52 57 59 59 63 66 64 61 59 58 61 63 63 64 65 65 64 63 62 62 60 58 58 59 61 62 64 65 65 65 63 61 61 60 59 58 58 58 58 57 58 60 61 60 60 60 61 62 62 61 59 58 59 59 60 61 60 60 60 60 61 62 62 61 55 49 48 49 48 47 46 45 44 42 37 38 42 44 44 44 43
63 63 58 52 50 49 48 49 54 59 61 61 60 57 56 58 59 62 62 62 64 66 66 66 67 68 66 64 63 62 61 60 60 61 62 63 64 63 62 62 62 61 60 60 60 59 59 61 63 64 64 64 65 64 64 62 60 59 59 60 60 60 60 60 60 61 61 61 61 62 61 53 47 47 47 43 43 43 43 44 42 38 38 41 43 44 44 43
63 64 62 59 58 55 52 52 54 57 60 61 59 57 56 58 61 63 64 64 65 64 63 64 66 68 68 67 67 65 64 63 62 61 61 60 60 61 61 62 62 61 60 59 59 60 61 61 62 64 66 66 65 64 62 61 60 60 60 61 61 61 61 61 63 63 62 61 58 60 59 49 43 45 44 42 43 43 43 45 45 42 40 41 42 42 43 41
64 64 62 62 63 62 60 59 58 59 60 59 58 60 60 58 56 59 62 62 63 63 62 63 64 65 66 67 67 67 67 67 66 65 63 61 58 57 58 59 60 60 59 59 59 59 59 59 60 63 65 65 63 62 62 61 62 62 63 63 63 63 63 62 62 60 58 57 55 57 57 45 39 44 45 45 46 44 44 47 48 46 43 42 41 40 41 41
65 63 63 63 64 65 66 64 62 63 63 59 57 60 61 57 54 55 56 56 56 57 59 62 62 62 63 64 65 67 68 68 68 66 64 63 62 60 60 61 60 60 60 60 60 60 60 61 62 63 64 64 64 64 63 62 63 65 65 65 63 62 59 57 57 55 55 55 53 56 56 46 41 45 46 47 47 46 47 50 51 48 44 43 42 39 40 41
67 65 66 67 65 67 70 69 66 66 65 62 61 62 61 57 55 54 54 54 53 53 55 58 59 59 60 62 64 65 66 66 67 67 66 65 64 62 62 63 62 61 61 60 60 61 62 62 62 62 63 64 65 67 67 67 67 66 64 62 61 59 57 57 57 56 57 56 54 57 58 49 44 46 46 47 48 48 50 54 54 48 43 44 43 39 39 40
70 69 69 69 68 69 71 71 70 70 67 65 65 64 62 60 58 55 55 56 55 53 53 54 55 56 57 59 60 62 63 64 64 65 66 67 65 64 65 66 66 65 64 63 63 63 63 63 62 63 64 65 66 67 67 65 63 61 60 59 58 56 56 56 55 55 57 56 56 59 57 49 46 46 46 49 52 54 55 56 55 48 43 44 43 40 37 37
72 73 72 71 72 72 71 71 73 74 72 69 67 64 62 62 61 58 59 59 58 55 54 54 55 56 58 59 60 61 63 63 63 64 65 66 65 65 66 66 67 68 69 69 69 69 68 67 67 67 68 67 66 65 64 62 60 60 59 57 56 55 54 54 54 56 57 57 58 58 54 50 48 48 50 53 56 58 58 56 53 48 45 45 43 39 37 36
74 76 74 72 72 73 73 73 74 76 76 74 73 68 62 61 61 62 63 62 59 58 57 57 58 59 60 61 61 62 63 63 63 64 64 63 63 63 64 64 64 65 66 68 69 71 71 70 69 69 70 68 66 64 64 63 63 61 60 58 58 57 58 59 60 60 58 59 60 56 54 55 51 50 54 56 57 59 57 54 50 47 46 46 44 41 40 39
74 76 76 74 73 72 72 74 75 75 76 77 77 74 67 62 63 65 65 61 60 61 61 61 61 61 62 61 59 59 60 59 60 62 62 62 62 63 63 63 62 61 61 62 64 66 69 69 68 69 69 67 65 65 65 64 64 63 61 61 60 60 61 62 61 60 59 63 61 56 58 60 54 52 56 58 58 55 51 49 49 47 47 46 45 45 44 42
72 75 76 77 77 75 74 74 75 76 77 78 79 78 73 67 64 65 66 65 64 65 65 64 61 58 58 59 58 57 56 55 54 56 57 58 58 59 59 59 60 58 57 58 59 61 63 63 62 63 64 63 62 63 64 64 64 65 64 63 62 62 63 62 61 61 63 66 63 60 63 62 55 53 55 55 52 48 45 47 49 48 46 46 46 46 45 44
71 73 74 76 78 79 78 76 76 77 78 79 80 79 77 73 66 63 65 69 70 68 67 65 61 58 57 57 59 60 58 55 53 52 52 53 55 56 56 56 56 56 55 55 55 56 57 57 55 56 58 57 55 58 60 61 63 63 62 62 62 62 63 64 64 64 67 67 63 61 64 62 56 53 50 48 47 45 45 47 47 46 45 45 46 47 46 45
71 72 73 74 76 78 79 79 78 78 79 81 81 80 79 77 72 65 64 67 69 70 69 65 61 60 60 60 61 62 59 56 56 56 56 56 56 55 56 56 55 54 53 53 53 53 53 53 51 51 54 52 50 52 55 56 58 59 59 58 58 59 62 62 61 60 62 62 59 59 62 60 54 48 46 45 46 46 46 46 46 46 46 46 47 47 46 45
73 72 72 74 76 77 78 80 81 80 79 80 81 81 80 78 77 75 71 67 66 66 67 65 61 60 60 60 60 59 57 56 56 58 59 59 58 58 58 58 57 56 54 53 53 53 53 54 53 53 55 51 48 49 51 53 57 59 56 52 52 55 58 58 57 58 58 58 57 58 58 53 48 46 46 46 46 46 46 47 47 47 46 47 48 47 46 45
Wind_Direction
202 202 202 203 203 204 204 205 206 206 207 207 208 208 208 208 207 207 206 207 208 210 211 210 210 209 208 207 207 206 205 203 201 200 198 197 196 195 194 194 193 194 195 196 198 199 200 202 204 205 206 207 209 211 213 214 214 217 221 226 235 245 255 265 274 283 287 289 294 297 297 297 298 297 296 300 305 310 317 323 326 327 327 326 324 323 317 312
205 205 205 205 206 207 207 208 208 209 209 210 210 209 209 210 210 209 208 209 210 212 212 212 212 211 210 208 208 206 203 201 200 199 198 197 197 196 195 195 194 194 195 197 198 199 200 202 204 205 205 206 208 210 212 214 215 218 223 229 239 248 258 266 275 282 287 291 293 295 297 299 298 296 296 299 303 306 313 318 322 323 324 323 323 321 317 313
208 208 208 208 209 209 210 211 211 211 212 212 212 212 211 211 211 211 211 211 212 213 213 214 214 212 211 210 209 206 202 200 199 199 198 197 197 197 196 195 195 195 196 197 198 198 198 200 202 203 202 204 206 208 212 217 221 225 231 237 245 253 260 268 274 281 286 289 290 293 296 298 299 297 298 299 300 305 310 314 316 319 319 319 319 318 316 313
211 211 210 210 211 211 212 212 213 213 214 214 215 214 213 212 212 212 212 213 213 214 215 215 215 214 212 211 209 206 201 200 200 200 199 199 199 198 197 196 196 195 195 197 198 197 196 198 200 201 201 204 208 212 216 222 228 233 238 244 251 257 263 269 274 279 282 285 289 292 295 298 298 297 298 298 300 304 307 309 311 314 314 314 315 315 314 313
213 213 213 213 212 212 213 213 214 214 215 216 217 216 216 214 213 213 213 214 214 215 216 216 216 215 213 211 209 205 203 203 202 201 202 201 200 199 198 197 197 196 197 199 200 199 198 199 201 203 205 209 212 216 220 225 231 236 243 248 254 261 267 271 274 276 280 285 289 292 294 296 296 297 297 297 300 304 305 307 309 310 310 310 311 312 311 311
215 215 215 215 215 214 214 214 215 216 216 217 218 217 217 216 215 214 214 214 215 216 217 217 216 215 214 212 209 206 205 206 205 204 204 203 201 200 200 199 199 199 200 203 204 203 202 203 205 207 209 213 216 219 222 227 231 237 244 251 258 265 269 272 275 278 282 287 290 292 294 296 296 296 297 298 301 303 305 307 308 308 308 309 309 309 309 308
216 217 217 217 217 216 216 216 216 217 218 218 219 219 219 218 218 217 216 216 216 217 217 217 217 216 214 212 210 207 207 208 207 207 206 205 203 202 202 201 202 203 204 207 208 208 207 207 209 211 213 216 219 222 225 230 234 240 247 254 261 266 271 274 278 283 286 288 291 293 295 297 297 298 298 298 301 303 305 306 306 307 308 309 309 308 307 305
217 217 217 218 218 218 218 218 218 218 219 220 220 220 221 221 220 220 219 218 218 218 218 218 218 217 215 213 211 209 209 209 209 209 208 208 206 205 204 204 205 206 207 209 210 211 210 211 213 215 216 219 223 227 231 236 241 245 251 257 262 266 272 276 280 286 288 290 294 296 297 298 299 301 299 297 301 304 305 304 304 306 307 308 308 307 305 304
218 218 218 218 219 219 219 219 220 220 220 221 222 222 222 223 223 222 221 221 220 220 220 220 220 218 216 214 212 212 211 210 211 211 210 210 209 207 207 206 207 209 210 211 213 213 214 215 218 220 221 223 227 231 236 241 246 250 254 260 264 268 272 276 280 284 287 290 294 294 296 298 300 301 296 296 303 305 304 304 303 305 305 306 307 306 304 303
218 219 219 219 220 220 220 221 221 221 222 222 223 223 224 224 224 224 224 223 222 222 222 221 221 220 218 216 214 214 213 212 212 213 212 212 212 211 210 210 210 211 213 214 215 216 218 219 222 224 226 228 231 234 239 244 249 254 258 262 265 269 272 276 279 281 284 287 289 290 293 296 298 295 292 297 305 304 303 304 303 303 303 303 303 303 302 301
219 219 220 220 221 221 221 222 223 223 223 223 224 224 225 225 225 225 225 225 225 224 223 223 222 222 220 218 217 217 215 214 214 215 214 214 214 214 213 213 213 214 215 217 218 219 221 223 226 229 230 232 235 238 241 246 251 256 260 264 266 269 271 275 278 280 284 286 287 288 291 295 294 291 293 300 304 303 304 304 303 302 301 301 300 299 298 298
219 220 221 221 222 222 223 223 224 224 224 224 225 226 226 227 227 227 227 226 226 226 225 224 224 223 222 220 220 219 217 216 216 216 217 216 217 218 217 216 216 217 218 220 221 222 223 226 229 232 235 237 239 241 243 247 251 256 260 263 266 268 271 275 278 281 284 286 288 288 291 295 293 292 297 302 303 303 305 304 303 302 301 299 297 296 294 293
219 220 221 222 222 223 224 224 225 225 225 225 226 226 227 228 228 228 228 228 228 228 227 226 225 224 223 222 222 221 219 219 218 218 219 218 219 219 220 220 219 220 221 223 224 225 226 228 231 234 237 240 243 245 246 250 253 257 260 262 265 267 271 275 278 282 284 286 287 286 289 294 293 295 299 300 301 304 306 306 305 303 300 299 296 294 292 291
220 220 221 221 223 224 225 225 226 227 227 227 227 227 227 228 228 229 229 229 229 229 229 228 227 225 225 224 224 223 222 221 220 220 221 221 221 221 222 223 223 223 224 226 227 229 230 231 233 236 239 242 244 246 249 252 256 259 261 263 265 268 271 275 279 282 284 285 285 285 288 293 294 296 299 298 301 304 306 307 305 303 301 299 296 293 291 290
221 221 222 222 222 223 224 226 227 227 228 228 228 228 228 229 229 229 229 230 230 230 229 229 228 227 226 226 226 226 225 224 223 222 222 223 223 223 223 224 225 226 227 228 229 231 232 234 235 237 239 242 244 247 250 254 257 260 261 264 268 272 275 277 280 282 282 283 284 285 288 292 294 296 297 298 301 304 306 306 304 303 302 299 295 292 291 291
223 222 223 223 223 223 224 225 226 227 227 228 229 229 229 230 230 230 230 230 229 229 229 228 228 228 228 227 228 228 228 227 226 225 224 224 225 225 226 226 227 228 229 231 232 233 234 236 237 238 240 242 245 248 252 255 257 260 263 267 272 276 278 280 281 281 281 282 283 285 287 292 294 293 295 298 301 304 307 308 306 305 302 298 295 293 292 292
223 223 224 224 224 224 224 225 226 226 227 228 228 229 229 230 231 231 230 230 229 228 228 228 228 228 229 229 229 230 230 230 229 228 227 226 227 227 227 228 228 230 231 232 233 234 235 237 238 240 241 244 247 250 252 254 257 261 266 271 274 276 278 280 281 282 282 283 283 284 287 292 292 292 295 297 299 304 308 309 309 306 302 299 297 295 292 291
223 224 224 224 225 225 225 226 226 226 227 228 228 228 229 230 230 231 230 230 229 228 228 227 228 229 229 230 230 231 232 232 231 230 229 228 228 229 229 229 230 231 232 233 234 235 237 238 240 241 244 246 247 249 252 254 258 263 268 271 272 274 276 279 281 282 282 283 284 285 288 290 289 292 295 295 298 303 308 309 307 304 302 301 299 296 293 291
224 224 225 225 225 226 226 226 226 226 227 228 228 229 230 230 230 231 231 230 230 229 229 229 229 230 230 231 231 232 233 233 233 232 231 231 230 230 231 231 231 232 233 235 236 237 238 240 242 243 245 246 247 250 253 256 260 263 266 268 271 273 277 279 280 280 281 282 284 287 289 288 289 291 294 295 298 303 307 306 304 303 302 300 298 295 293 291
223 224 225 225 226 226 227 227 227 227 227 227 228 229 230 231 231 231 231 231 231 231 230 231 231 230 231 231 231 232 233 233 233 233 233 232 232 232 232 232 232 233 234 236 237 238 240 241 243 244 245 247 249 252 254 257 260 262 265 268 271 274 277 279 279 280 282 283 285 287 288 288 289 290 292 294 298 304 305 303 302 301 300 298 296 292 290 290
223 223 224 224 225 226 227 228 228 228 229 229 229 230 230 231 231 231 231 232 232 232 232 232 232 231 231 232 232 233 233 234 235 235 234 234 233 233 233 233 234 235 236 237 238 239 240 242 243 245 246 249 251 253 255 258 260 263 265 267 270 273 276 277 279 281 282 283 286 287 287 288 289 288 290 294 299 302 302 301 301 299 296 295 292 289 288 290
222 223 224 224 224 225 227 229 229 230 230 230 231 231 232 232 232 232 232 232 232 232 232 232 232 232 232 233 233 233 234 235 236 236 236 236 235 235 234 235 235 236 236 237 238 239 241 243 244 245 247 250 253 255 257 258 260 263 265 268 270 273 275 277 279 281 283 285 287 287 287 287 286 287 290 295 299 301 301 301 300 295 292 289 284 284 287 290
222 223 224 224 224 225 226 228 230 231 232 232 232 233 233 234 234 233 232 232 231 231 232 233 233 233 233 234 234 234 235 236 237 237 237 237 236 236 235 235 236 236 236 237 238 239 241 242 243 246 248 251 254 256 258 259 261 263 265 267 270 273 275 276 278 281 283 286 288 288 287 285 285 288 292 297 300 301 302 301 299 295 289 282 279 281 284 286
224 224 224 225 225 225 225 227 228 230 231 232 233 233 234 235 235 235 235 234 232 231 232 232 233 233 234 235 235 234 235 235 236 236 236 236 236 236 235 235 236 236 237 238 239 240 241 242 244 246 249 252 254 257 259 261 261 262 264 267 270 272 275 277 279 281 283 285 287 289 287 284 285 288 292 299 301 302 302 300 299 295 286 280 278 278 280 283
228 227 227 226 227 227 227 228 229 230 230 230 231 232 233 235 235 236 237 237 234 231 232 233 233 233 233 234 235 235 236 235 235 236 236 236 236 236 235 235 236 237 238 239 240 241 241 243 245 247 250 253 255 258 259 260 261 262 264 267 270 272 274 277 279 281 283 284 285 287 286 284 284 288 293 299 299 300 301 301 300 294 285 282 281 279 280 282
231 231 230 229 229 229 229 229 228 229 230 230 230 231 233 233 235 236 237 239 237 232 233 235 234 234 234 235 236 236 236 236 236 237 237 237 237 237 236 236 237 237 238 240 241 242 242 245 247 249 251 253 255 257 258 259 261 263 265 268 270 272 275 277 279 281 283 284 285 285 285 285 284 286 293 295 295 298 299 299 298 293 288 286 284 281 281 281
233 233 233 232 232 231 231 230 228 229 230 230 230 232 233 233 234 235 236 239 238 233 233 235 236 236 236 237 237 237 238 237 237 238 238 238 238 238 238 238 238 239 240 242 243 243 244 246 248 250 251 252 254 257 258 260 262 264 267 268 270 272 274 276 279 280 282 284 284 283 286 288 284 285 291 291 291 297 296 294 294 291 289 287 284 281 280 281
234 235 235 235 234 233 232 232 231 231 231 230 231 232 233 233 234 234 236 239 238 234 233 235 236 237 236 236 236 237 239 237 236 237 238 239 239 239 240 239 239 240 241 242 243 243 244 245 247 248 250 253 255 257 259 261 264 266 267 268 270 273 274 276 278 280 282 282 282 283 288 289 286 286 289 289 293 298 294 288 289 288 287 285 282 280 280 282
235 236 236 237 236 235 234 233 233 233 232 231 232 232 232 233 233 234 235 237 237 235 234 234 235 237 237 237 236 238 239 238 236 235 236 237 238 239 240 240 241 241 242 243 243 244 244 246 247 249 251 254 256 258 260 263 265 266 268 269 271 272 274 276 277 279 280 279 280 284 288 290 287 284 285 289 295 298 292 288 289 288 287 284 282 282 283 284
236 237 238 238 237 237 236 236 235 235 235 233 232 232 232 233 233 234 235 236 238 238 236 233 233 235 237 237 237 238 239 239 238 236 235 236 237 238 239 239 240 241 242 243 244 245 246 247 249 251 253 255 257 259 261 263 264 266 267 269 271 273 274 276 276 277 277 277 281 285 287 290 287 282 285 292 294 294 291 290 292 292 290 288 287 286 286 287
235 237 238 238 238 237 237 237 237 238 238 236 235 233 233 233 233 233 235 239 240 240 239 236 234 235 237 239 239 239 240 240 240 239 237 237 238 238 239 240 241 243 244 245 246 247 249 250 252 253 255 255 256 258 259 261 263 265 268 270 272 274 274 274 274 274 275 278 283 286 287 287 283 281 288 293 293 293 291 292 294 294 294 293 292 291 289 288
235 238 239 239 238 237 236 237 239 240 239 238 237 236 235 234 233 234 237 239 240 241 241 240 238 237 237 239 240 240 241 241 241 242 241 240 240 240 241 242 243 245 246 247 248 249 250 251 252 252 252 253 254 256 258 261 264 267 269 271 271 272 272 271 272 274 276 280 284 285 285 283 280 282 290 293 293 292 290 292 295 294 296 297 296 293 290 288
233 237 240 239 238 236 234 236 238 240 240 239 239 239 237 235 236 238 241 240 240 243 244 242 241 238 237 237 239 240 241 241 242 242 242 242 241 240 240 241 242 244 245 246 246 248 248 248 249 251 252 254 256 258 261 263 265 266 266 267 267 268 269 271 274 276 279 281 281 282 282 281 281 285 289 291 291 289 289 292 293 294 297 298 297 293 290 288
227 230 235 237 237 235 233 236 239 240 240 239 238 238 237 237 238 240 242 242 242 245 246 245 243 241 240 239 239 240 241 242 242 242 243 243 243 242 241 242 243 244 246 247 248 249 250 250 251 254 256 257 259 261 262 263 263 263 263 264 265 267 270 273 276 277 278 279 279 280 280 280 283 287 289 288 287 287 288 290 291 295 299 299 296 294 292 290
225 226 228 229 231 232 232 233 236 238 238 237 237 236 236 237 238 239 241 242 243 243 243 245 244 242 242 241 240 241 241 242 243 243 244 244 245 245 244 245 245 246 247 249 250 252 253 253 254 256 257 259 260 260 261 261 261 262 262 264 266 268 271 272 274 275 277 278 279 279 279 280 283 286 287 287 286 287 288 288 291 296 298 297 296 296 296 295
227 226 225 225 226 229 230 231 235 238 239 237 236 236 237 239 240 241 241 241 241 242 243 245 246 245 244 243 242 241 242 243 244 244 244 245 246 246 246 246 247 247 248 250 251 253 254 254 254 255 256 256 257 258 258 259 260 261 262 264 267 269 269 270 272 273 275 276 278 279 279 281 283 283 284 286 286 287 287 288 291 294 294 293 295 298 299 298
226 227 225 225 225 227 230 232 234 238 240 239 239 238 238 240 240 240 240 239 240 242 243 245 247 247 247 246 245 244 244 244 244 245 245 246 246 246 246 248 248 249 250 251 253 253 255 255 254 255 255 255 256 257 258 259 260 261 263 265 267 268 269 270 271 273 274 276 277 278 278 279 280 282 285 285 285 285 286 288 289 290 291 293 296 297 297 296
226 225 224 222 223 225 228 228 229 231 234 236 238 239 239 238 238 239 239 239 240 241 241 243 245 246 247 246 246 245 246 245 245 245 246 246 246 245 246 247 248 250 251 252 253 253 254 256 255 255 256 256 256 257 257 258 260 262 264 266 267 268 269 270 271 272 274 275 276 276 276 277 279 283 286 285 285 285 286 286 287 290 293 295 295 295 293 293
229 227 222 220 222 222 222 225 228 231 231 231 234 236 238 238 237 239 240 240 241 241 241 242 244 246 246 246 245 245 245 245 244 244 245 245 246 245 246 247 248 249 251 252 253 253 254 255 254 254 254 255 256 256 258 259 261 264 265 266 267 267 268 269 270 271 272 274 275 275 276 278 282 285 284 284 284 284 283 284 286 291 295 295 294 293 292 292
231 230 224 222 225 223 221 226 232 235 236 236 234 233 235 237 237 238 239 239 240 242 242 242 243 245 246 246 246 246 246 246 244 244 244 244 244 244 245 246 247 248 249 250 251 252 252 253 253 253 254 254 256 257 260 261 262 263 263 264 265 266 267 268 269 270 270 271 273 277 279 282 283 281 280 281 281 281 283 285 287 293 295 295 294 292 291 292
231 231 227 226 228 225 223 229 234 236 238 237 234 231 232 234 236 237 238 239 240 241 241 241 242 244 245 246 247 247 248 248 247 246 245 243 243 243 244 245 246 247 249 250 250 251 252 253 254 254 254 255 257 258 259 259 260 260 261 262 263 264 265 265 266 267 269 273 277 280 281 279 277 277 279 281 281 283 286 287 289 294 296 295 293 291 290 291
231 231 228 228 229 227 227 231 234 236 239 237 234 233 233 234 235 235 235 237 239 240 240 240 241 242 243 244 246 247 248 249 249 247 246 244 242 243 244 246 247 248 249 250 251 251 253 254 253 253 253 254 255 255 255 256 257 258 259 260 260 261 263 265 268 271 274 276 277 277 277 273 272 276 279 281 283 285 287 288 290 295 297 294 291 289 289 290
230 230 229 228 228 227 228 230 232 235 237 237 236 236 234 234 236 235 233 234 236 238 239 239 240 242 244 245 246 247 248 249 249 248 247 246 244 243 244 246 247 248 248 249 250 251 252 253 253 253 254 254 254 255 255 256 256 256 257 258 260 263 266 269 271 273 273 273 274 276 274 270 270 275 279 281 284 285 287 288 291 296 298 294 290 288 287 287
230 229 229 229 228 227 228 228 229 232 234 234 236 237 236 234 235 236 235 235 236 237 238 237 238 240 243 244 245 247 247 248 249 249 249 248 247 245 244 245 246 247 248 249 250 251 253 254 255 256 256 255 254 254 254 255 256 257 259 261 264 266 269 270 271 272 272 273 274 273 271 271 275 279 281 284 285 286 287 288 290 294 294 291 289 288 286 285
231 229 229 229 228 228 228 228 228 231 233 233 234 236 237 235 235 236 237 237 237 238 237 237 237 240 242 243 244 246 246 247 248 249 249 249 249 247 247 246 246 247 248 249 250 250 251 252 253 254 255 255 254 255 256 258 261 263 264 265 266 267 269 270 271 270 270 269 268 269 272 276 279 280 282 284 285 286 286 287 288 290 290 289 289 288 284 282
231 230 229 230 230 228 228 229 229 230 232 234 235 235 236 236 235 235 237 237 237 238 238 237 238 240 242 243 243 244 245 246 247 248 248 249 251 251 250 250 248 248 248 248 249 250 251 252 253 254 255 255 256 257 259 260 261 262 261 262 264 264 265 266 264 265 268 269 268 270 274 276 277 279 282 283 284 284 284 284 286 289 290 290 290 287 282 279
231 231 229 230 231 231 229 228 230 230 231 233 236 236 236 237 236 235 236 237 237 237 239 240 240 240 241 241 243 243 244 245 247 248 249 249 250 251 252 252 251 250 250 250 250 250 251 252 253 254 255 254 254 256 257 257 258 259 260 261 262 263 264 263 263 266 269 269 268 271 274 274 274 278 282 282 281 280 281 283 287 289 289 288 287 284 281 279
231 231 230 229 231 232 231 229 230 231 231 233 235 236 236 237 237 237 236 236 236 237 240 242 241 240 240 240 241 241 242 244 246 248 250 250 251 252 252 253 253 252 252 252 253 253 253 251 251 252 253 253 253 254 255 256 258 259 260 262 262 262 262 263 266 269 269 268 269 271 271 271 274 279 281 280 278 279 282 285 285 284 284 283 283 283 281 279
232 231 230 230 230 230 231 230 230 231 231 232 234 234 234 235 237 238 237 237 237 238 241 243 239 236 237 238 239 240 240 242 246 249 251 251 251 252 253 254 254 253 253 252 253 255 256 255 255 256 257 256 256 256 256 257 258 258 259 260 260 261 262 264 266 267 265 266 269 269 270 273 277 279 279 277 278 281 281 279 278 280 281 282 282 282 281 280
234 233 232 231 231 230 230 231 231 231 231 231 232 233 232 233 234 236 236 238 239 239 241 243 238 232 234 238 240 242 242 244 247 249 250 251 250 250 252 253 254 256 256 256 256 257 258 259 260 260 261 259 257 258 258 257 257 257 257 257 259 261 262 263 264 264 264 267 270 271 272 274 277 277 277 278 278 276 274 274 276 278 279 279 279 280 280 281
235 235 234 233 233 231 230 230 231 231 231 231 231 231 231 230 231 233 234 235 237 238 240 241 237 234 236 240 242 244 245 247 249 249 249 250 249 249 250 252 253 254 257 259 260 259 259 260 259 259 259 257 256 257 257 257 257 255 253 255 259 262 262 262 263 264 266 268 270 269 270 275 278 276 273 271 272 274 276 277 276 275 275 276 277 278 279 280
236 235 235 236 235 233 231 231 231 232 232 231 231 232 231 230 230 233 235 234 234 235 237 238 237 234 235 237 240 243 243 243 245 246 247 248 249 249 249 249 248 248 250 252 255 256 256 257 257 257 258 257 254 255 257 257 256 253 253 258 260 260 260 261 262 263 265 266 266 266 270 274 274 269 266 268 272 275 276 275 274 274 275 275 276 277 277 277
Height
5797 5799 5801 5804 5806 5808 5810 5812 5815 5817 5819 5821 5822 5824 5826 5827 5829 5831 5832 5834 5836 5837 5839 5840 5842 5843 5845 5846 5847 5848 5850 5851 5852 5854 5855 5856 5857 5858 5859 5860 5861 5862 5863 5864 5865 5866 5867 5868 5868 5869 5870 5871 5872 5873 5874 5874 5875 5876 5877 5877 5878 5878 5878 5878 5878 5878 5879 5879 5879 5879 5879 5880 5880 5879 5879 5878 5878 5878 5878 5878 5878 5878 5878 5877 5877 5877 5876 5876
5795 5797 5799 5802 5804 5806 5809 5811 5813 5815 5817 5819 5821 5822 5824 5826 5828 5829 5831 5833 5834 5836 5837 5839 5840 5842 5843 5845 5846 5847 5849 5850 5851 5853 5854 5855 5856 5857 5858 5859 5860 5861 5862 5863 5864 5865 5866 5867 5868 5868 5869 5870 5871 5872 5873 5874 5875 5875 5876 5877 5877 5877 5877 5878 5878 5877 5877 5878 5878 5878 5878 5878 5878 5878 5878 5877 5877 5877 5877 5877 5877 5877 5877 5876 5876 5875 5875 5875
5793 5795 5797 5800 5802 5804 5807 5809 5811 5813 5815 5817 5819 5821 5822 5824 5826 5828 5829 5831 5833 5834 5836 5838 5839 5841 5842 5843 5845 5846 5848 5849 5850 5851 5853 5854 5855 5856 5857 5858 5859 5860 5861 5862 5863 5864 5865 5866 5867 5868 5869 5870 5871 5872 5872 5873 5874 5875 5875 5876 5876 5876 5877 5877 5877 5877 5876 5876 5877 5877 5877 5877 5877 5877 5877 5876 5876 5876 5876 5876 5876 5876 5876 5875 5875 5874 5874 5873
5791 5793 5795 5797 5799 5802 5804 5807 5809 5811 5813 5815 5817 5819 5821 5822 5824 5826 5828 5829 5831 5833 5834 5836 5838 5839 5841 5842 5844 5845 5847 5848 5849 5850 5852 5853 5854 5855 5856 5857 5858 5860 5861 5861 5862 5863 5864 5865 5866 5867 5868 5869 5870 5871 5872 5873 5873 5874 5874 5875 5875 5876 5876 5876 5876 5876 5875 5875 5876 5876 5876 5876 5876 5876 5876 5875 5875 5875 5875 5875 5875 5875 5875 5874 5874 5873 5872 5872
5788 5790 5793 5795 5797 5799 5802 5804 5806 5809 5811 5813 5815 5817 5819 5820 5822 5824 5826 5827 5829 5831 5833 5834 5836 5838 5840 5841 5842 5844 5845 5846 5848 5849 5851 5852 5853 5854 5855 5856 5858 5859 5860 5861 5861 5863 5864 5865 5865 5866 5867 5868 5869 5870 5871 5872 5872 5873 5873 5874 5874 5875 5875 5875 5875 5875 5875 5874 5875 5875 5875 5875 5875 5875 5874 5874 5874 5874 5874 5874 5874 5874 5874 5873 5873 5872 5871 5870
5785 5788 5790 5792 5795 5797 5799 5801 5804 5806 5808 5810 5812 5815 5816 5818 5820 5822 5823 5825 5827 5829 5831 5832 5834 5836 5838 5839 5841 5843 5844 5845 5847 5848 5849 5851 5852 5853 5854 5856 5857 5858 5859 5860 5860 5862 5863 5864 5865 5866 5866 5867 5868 5869 5870 5871 5871 5872 5872 5873 5873 5874 5874 5874 5874 5874 5874 5874 5874 5874 5874 5874 5874 5874 5873 5873 5873 5873 5873 5872 5872 5872 5872 5872 5871 5871 5870 5869
5781 5784 5787 5790 5792 5794 5796 5799 5801 5804 5806 5808 5810 5812 5814 5816 5818 5819 5821 5823 5825 5827 5828 5830 5832 5834 5836 5838 5839 5841 5842 5844 5845 5847 5848 5850 5851 5852 5853 5854 5856 5857 5858 5859 5860 5861 5862 5863 5864 5865 5865 5866 5867 5868 5869 5869 5870 5871 5871 5872 5872 5872 5872 5873 5873 5873 5873 5873 5872 5873 5873 5873 5873 5873 5872 5872 5872 5872 5871 5871 5870 5870 5870 5870 5869 5869 5869 5868
5778 5781 5784 5786 5789 5791 5794 5796 5799 5801 5803 5806 5808 5810 5812 5814 5816 5817 5819 5821 5822 5824 5826 5828 5830 5832 5834 5835 5837 5839 5840 5842 5844 5845 5847 5848 5849 5851 5852 5853 5854 5855 5857 5857 5859 5860 5861 5862 5862 5863 5864 5865 5866 5867 5868 5868 5869 5870 5870 5871 5871 5871 5871 5871 5872 5872 5872 5871 5871 5871 5872 5872 5872 5871 5870 5870 5871 5871 5870 5870 5869 5868 5868 5867 5867 5867 5866 5866
5774 5777 5780 5783 5786 5788 5791 5794 5796 5799 5801 5803 5805 5807 5809 5811 5813 5815 5817 5818 5820 5822 5824 5826 5827 5829 5832 5833 5835 5837 5838 5840 5842 5843 5845 5846 5848 5849 5850 5851 5853 5854 5855 5856 5857 5858 5859 5860 5861 5862 5863 5864 5865 5866 5866 5867 5868 5868 5869 5869 5870 5870 5870 5870 5871 5871 5871 5871 5871 5870 5870 5871 5870 5870 5868 5868 5869 5869 5869 5868 5868 5867 5866 5865 5864 5864 5864 5863
5770 5773 5776 5779 5782 5785 5787 5790 5793 5795 5798 5800 5803 5805 5807 5809 5810 5812 5814 5816 5818 5820 5821 5823 5825 5827 5829 5831 5833 5834 5836 5838 5839 5841 5843 5844 5846 5847 5848 5850 5851 5852 5853 5855 5856 5857 5858 5859 5860 5861 5862 5863 5864 5864 5865 5866 5866 5867 5867 5868 5868 5868 5868 5869 5869 5870 5870 5870 5870 5869 5870 5870 5869 5869 5866 5867 5868 5867 5867 5867 5866 5866 5865 5864 5863 5862 5861 5861
5766 5769 5772 5775 5778 5781 5784 5786 5789 5792 5794 5797 5799 5801 5804 5806 5807 5809 5811 5813 5815 5817 5819 5821 5823 5825 5827 5829 5831 5832 5834 5836 5837 5839 5841 5842 5844 5845 5846 5848 5849 5850 5852 5853 5854 5855 5856 5857 5858 5859 5860 5861 5862 5863 5864 5864 5865 5865 5865 5866 5866 5866 5867 5867 5868 5868 5869 5868 5868 5868 5868 5868 5868 5867 5865 5866 5866 5866 5866 5865 5864 5864 5863 5862 5861 5860 5859 5859
5762 5765 5768 5771 5774 5776 5779 5782 5785 5788 5791 5793 5796 5798 5800 5802 5804 5806 5808 5810 5812 5814 5816 5818 5820 5822 5824 5826 5828 5829 5831 5833 5835 5836 5838 5840 5842 5843 5845 5846 5847 5849 5850 5851 5852 5854 5855 5856 5857 5858 5859 5859 5860 5861 5862 5862 5863 5863 5864 5864 5864 5865 5865 5865 5866 5866 5867 5867 5866 5866 5867 5867 5866 5865 5865 5864 5864 5864 5864 5863 5862 5862 5861 5860 5859 5858 5858 5857
5758 5761 5764 5767 5770 5773 5776 5778 5781 5784 5787 5789 5792 5794 5796 5799 5801 5803 5805 5807 5809 5811 5813 5815 5817 5819 5821 5823 5825 5827 5829 5830 5832 5834 5836 5838 5839 5841 5842 5844 5845 5847 5848 5849 5851 5852 5853 5854 5855 5856 5857 5857 5858 5859 5860 5860 5861 5861 5862 5862 5862 5863 5864 5864 5864 5864 5864 5864 5864 5863 5865 5866 5863 5863 5863 5862 5862 5862 5861 5861 5860 5859 5859 5858 5857 5856 5855 5855
5754 5757 5760 5763 5766 5769 5772 5775 5778 5780 5783 5785 5788 5790 5792 5794 5797 5799 5802 5804 5806 5808 5810 5812 5814 5816 5818 5821 5822 5824 5826 5828 5830 5831 5833 5835 5837 5838 5840 5842 5843 5845 5846 5847 5849 5850 5851 5852 5853 5854 5855 5856 5856 5857 5858 5858 5859 5859 5860 5860 5860 5861 5862 5862 5862 5862 5861 5861 5861 5860 5862 5864 5861 5860 5861 5860 5860 5860 5859 5859 5858 5857 5856 5856 5854 5854 5853 5852
5750 5753 5756 5759 5762 5765 5768 5771 5773 5776 5779 5782 5784 5786 5788 5791 5793 5796 5798 5800 5802 5804 5807 5809 5811 5813 5815 5818 5820 5821 5823 5825 5827 5828 5830 5832 5834 5836 5837 5839 5840 5842 5844 5845 5846 5848 5849 5850 5851 5852 5853 5854 5854 5855 5856 5856 5857 5857 5857 5858 5859 5859 5860 5860 5860 5859 5859 5858 5858 5857 5859 5862 5860 5858 5858 5857 5858 5857 5857 5857 5856 5855 5854 5853 5852 5851 5851 5850
5746 5749 5752 5755 5758 5760 5763 5766 5769 5772 5775 5777 5780 5783 5785 5787 5790 5792 5794 5797 5799 5801 5803 5805 5807 5810 5812 5814 5817 5818 5820 5822 5823 5826 5828 5830 5831 5833 5835 5836 5838 5839 5841 5842 5844 5845 5846 5848 5849 5850 5851 5852 5852 5853 5853 5854 5854 5854 5855 5856 5857 5857 5858 5858 5857 5857 5856 5856 5856 5855 5856 5859 5858 5856 5855 5855 5855 5855 5855 5854 5854 5853 5852 5851 5850 5849 5848 5847
5743 5745 5748 5751 5754 5756 5759 5762 5765 5768 5770 5773 5776 5779 5781 5784 5786 5788 5791 5793 5795 5797 5799 5801 5804 5806 5808 5811 5814 5815 5816 5818 5821 5823 5825 5827 5828 5830 5832 5834 5835 5837 5838 5840 5841 5842 5844 5845 5846 5847 5848 5849 5850 5851 5851 5851 5852 5852 5853 5855 5855 5855 5855 5855 5855 5854 5854 5853 5853 5853 5853 5856 5855 5854 5853 5852 5852 5853 5853 5852 5851 5850 5849 5848 5848 5847 5846 5845
5739 5742 5744 5747 5750 5753 5755 5758 5761 5764 5766 5769 5772 5774 5777 5779 5782 5784 5787 5789 5791 5793 5795 5798 5800 5802 5805 5808 5810 5811 5813 5816 5818 5820 5822 5823 5825 5827 5829 5831 5832 5834 5835 5837 5838 5840 5841 5842 5843 5844 5846 5847 5847 5847 5848 5849 5850 5850 5852 5852 5852 5852 5853 5853 5852 5852 5851 5850 5850 5850 5851 5852 5852 5851 5851 5850 5849 5850 5850 5849 5848 5847 5846 5845 5845 5844 5842 5842
5735 5738 5741 5744 5746 5749 5751 5754 5757 5759 5762 5765 5768 5770 5773 5775 5777 5780 5782 5784 5787 5789 5791 5793 5796 5798 5801 5804 5806 5808 5810 5812 5814 5816 5818 5820 5822 5823 5825 5827 5829 5830 5832 5833 5835 5837 5838 5839 5840 5842 5843 5844 5843 5844 5845 5847 5848 5848 5849 5849 5849 5850 5850 5850 5849 5848 5848 5847 5847 5847 5847 5848 5849 5849 5848 5847 5847 5848 5848 5846 5845 5844 5844 5843 5841 5840 5839 5839
5731 5733 5736 5740 5742 5745 5748 5750 5753 5755 5758 5761 5764 5766 5768 5771 5773 5775 5778 5780 5782 5784 5787 5789 5792 5794 5797 5799 5801 5803 5805 5808 5810 5812 5814 5816 5818 5819 5821 5823 5825 5827 5828 5830 5832 5834 5835 5836 5837 5839 5840 5839 5840 5842 5843 5844 5845 5845 5846 5846 5846 5847 5847 5847 5845 5845 5845 5844 5844 5845 5844 5844 5845 5846 5846 5844 5844 5845 5844 5843 5842 5841 5840 5839 5838 5837 5837 5836
5726 5729 5732 5735 5738 5741 5744 5746 5749 5752 5754 5757 5760 5762 5765 5767 5768 5771 5773 5775 5777 5779 5782 5784 5787 5790 5792 5795 5797 5799 5801 5803 5806 5808 5810 5812 5814 5815 5817 5820 5822 5823 5825 5827 5828 5830 5830 5832 5835 5836 5835 5836 5837 5839 5840 5841 5842 5842 5843 5843 5843 5844 5844 5843 5842 5842 5841 5840 5841 5841 5840 5840 5841 5842 5843 5842 5842 5842 5841 5840 5839 5839 5837 5836 5834 5834 5834 5833
5720 5724 5727 5730 5733 5736 5739 5742 5745 5748 5751 5754 5757 5759 5760 5762 5763 5766 5768 5769 5772 5774 5777 5780 5783 5786 5788 5790 5792 5795 5797 5799 5802 5804 5806 5808 5810 5811 5814 5816 5818 5819 5821 5822 5824 5825 5827 5830 5832 5831 5831 5833 5834 5836 5837 5838 5838 5839 5839 5840 5840 5840 5840 5840 5839 5838 5838 5837 5837 5837 5836 5836 5837 5838 5840 5840 5839 5839 5838 5836 5836 5835 5835 5833 5831 5831 5831 5831
5715 5719 5722 5725 5729 5731 5735 5738 5741 5745 5747 5750 5753 5754 5755 5757 5759 5761 5762 5764 5766 5769 5772 5776 5778 5781 5784 5786 5788 5791 5793 5795 5797 5799 5802 5804 5805 5807 5809 5811 5813 5814 5816 5818 5819 5821 5824 5826 5827 5827 5828 5830 5831 5832 5833 5834 5835 5835 5835 5836 5837 5837 5836 5836 5836 5835 5835 5834 5833 5832 5830 5831 5833 5834 5836 5837 5836 5835 5834 5833 5832 5832 5831 5830 5829 5829 5829 5828
5710 5713 5716 5720 5723 5727 5731 5733 5737 5741 5743 5745 5747 5748 5750 5752 5754 5756 5757 5758 5761 5765 5768 5771 5774 5777 5780 5781 5783 5786 5788 5790 5792 5794 5796 5799 5800 5801 5804 5806 5807 5810 5812 5814 5815 5817 5820 5822 5823 5824 5825 5826 5828 5829 5830 5830 5831 5831 5832 5833 5833 5833 5832 5832 5832 5831 5831 5831 5829 5827 5823 5823 5828 5831 5833 5835 5832 5831 5830 5829 5829 5828 5826 5825 5826 5826 5826 5825
5705 5708 5712 5715 5718 5723 5726 5729 5734 5736 5737 5741 5742 5743 5745 5747 5749 5751 5751 5751 5755 5761 5764 5766 5770 5773 5775 5776 5779 5782 5783 5786 5788 5790 5792 5794 5795 5796 5799 5801 5803 5806 5808 5809 5810 5813 5817 5818 5819 5821 5822 5823 5825 5826 5826 5825 5826 5827 5829 5829 5829 5829 5828 5828 5828 5827 5827 5827 5826 5825 5818 5814 5821 5827 5830 5831 5829 5827 5827 5826 5826 5824 5822 5821 5822 5823 5822 5821
5700 5703 5707 5710 5714 5718 5721 5726 5729 5729 5733 5736 5736 5737 5740 5742 5744 5745 5746 5745 5749 5757 5761 5763 5766 5768 5771 5773 5776 5778 5778 5782 5785 5785 5787 5789 5790 5792 5794 5796 5799 5802 5804 5805 5806 5810 5814 5815 5816 5817 5818 5819 5820 5821 5822 5821 5822 5824 5825 5826 5825 5824 5825 5824 5824 5823 5823 5823 5822 5821 5816 5810 5812 5820 5826 5826 5825 5825 5825 5825 5823 5820 5819 5818 5819 5819 5819 5818
5695 5699 5702 5706 5709 5713 5718 5721 5722 5725 5729 5730 5730 5733 5735 5737 5738 5740 5741 5738 5742 5755 5758 5759 5762 5765 5769 5770 5772 5772 5773 5779 5782 5781 5783 5785 5785 5788 5790 5793 5796 5798 5800 5800 5802 5807 5811 5811 5812 5813 5813 5814 5816 5817 5817 5816 5818 5820 5822 5822 5820 5821 5820 5820 5820 5819 5819 5819 5816 5814 5815 5809 5804 5812 5820 5820 5821 5823 5824 5823 5821 5818 5817 5816 5816 5816 5815 5814
5691 5694 5697 5701 5704 5709 5713 5715 5718 5723 5723 5722 5726 5728 5729 5732 5732 5734 5734 5731 5739 5751 5753 5754 5758 5761 5764 5765 5767 5767 5769 5776 5776 5776 5779 5780 5781 5784 5785 5789 5792 5793 5795 5795 5798 5804 5805 5805 5807 5808 5808 5810 5812 5813 5813 5813 5814 5816 5817 5816 5816 5817 5816 5816 5816 5815 5815 5814 5810 5810 5813 5808 5800 5805 5812 5813 5816 5819 5820 5821 5819 5816 5816 5815 5814 5813 5812 5811
5686 5688 5692 5695 5698 5703 5707 5710 5716 5716 5715 5717 5721 5721 5723 5725 5725 5727 5726 5726 5736 5745 5747 5751 5754 5756 5758 5760 5762 5763 5765 5769 5770 5772 5774 5774 5776 5779 5781 5785 5787 5788 5789 5791 5795 5798 5798 5800 5802 5803 5805 5807 5808 5809 5809 5809 5810 5811 5812 5811 5812 5812 5811 5812 5811 5811 5811 5807 5805 5809 5810 5805 5798 5798 5804 5809 5812 5813 5814 5816 5815 5814 5813 5812 5811 5810 5809 5808
5680 5683 5686 5689 5693 5699 5702 5707 5710 5708 5708 5712 5713 5715 5717 5717 5719 5719 5717 5724 5735 5738 5740 5746 5749 5751 5753 5755 5757 5759 5761 5763 5765 5768 5768 5769 5772 5774 5777 5780 5781 5782 5784 5787 5790 5792 5794 5796 5798 5799 5802 5804 5804 5805 5805 5805 5805 5806 5807 5806 5807 5807 5807 5807 5806 5806 5804 5800 5803 5807 5806 5804 5794 5789 5798 5807 5808 5808 5808 5810 5810 5810 5809 5808 5807 5807 5805 5804
5674 5677 5679 5683 5689 5693 5697 5703 5704 5701 5703 5705 5705 5708 5709 5709 5711 5709 5712 5726 5734 5730 5733 5741 5745 5748 5750 5751 5753 5755 5757 5759 5761 5762 5764 5767 5769 5770 5773 5775 5777 5779 5780 5783 5787 5788 5790 5792 5794 5796 5798 5799 5800 5800 5799 5799 5800 5801 5802 5802 5802 5802 5801 5801 5800 5800 5798 5797 5802 5803 5801 5800 5789 5786 5796 5801 5802 5804 5803 5803 5804 5804 5803 5803 5802 5802 5801 5799
5669 5671 5674 5678 5683 5686 5692 5697 5697 5694 5695 5697 5698 5700 5702 5701 5699 5700 5714 5727 5725 5722 5730 5737 5740 5744 5745 5746 5748 5750 5752 5754 5756 5758 5760 5763 5764 5767 5770 5772 5774 5775 5776 5780 5783 5783 5784 5787 5789 5790 5791 5793 5793 5794 5795 5795 5796 5797 5798 5798 5797 5796 5795 5794 5794 5794 5794 5796 5799 5797 5795 5791 5783 5787 5796 5796 5798 5799 5798 5797 5798 5797 5797 5796 5796 5796 5795 5794
5663 5666 5668 5671 5676 5681 5686 5690 5688 5686 5688 5691 5691 5692 5694 5691 5689 5700 5716 5720 5716 5719 5727 5731 5734 5736 5738 5740 5742 5745 5747 5748 5751 5753 5754 5756 5759 5762 5765 5767 5769 5770 5771 5775 5776 5776 5778 5781 5782 5783 5785 5788 5789 5790 5791 5792 5793 5793 5793 5792 5791 5790 5788 5787 5789 5789 5790 5792 5793 5791 5789 5782 5780 5787 5793 5793 5794 5794 5794 5793 5791 5791 5792 5791 5790 5789 5789 5789
5657 5660 5662 5666 5670 5674 5679 5682 5680 5680 5682 5684 5684 5684 5683 5681 5688 5702 5709 5711 5714 5719 5722 5723 5725 5728 5731 5735 5737 5739 5741 5743 5745 5747 5748 5750 5752 5756 5760 5762 5764 5765 5768 5769 5769 5771 5772 5774 5778 5780 5781 5783 5785 5786 5787 5786 5786 5786 5786 5785 5785 5785 5783 5783 5785 5784 5784 5786 5786 5786 5783 5778 5778 5783 5786 5789 5790 5790 5790 5789 5786 5786 5786 5785 5784 5784 5784 5784
5650 5653 5656 5660 5663 5666 5671 5674 5675 5673 5674 5676 5676 5673 5671 5676 5689 5699 5702 5707 5710 5712 5714 5714 5715 5720 5724 5728 5731 5734 5735 5737 5740 5741 5742 5744 5747 5752 5755 5757 5760 5762 5764 5764 5765 5767 5766 5769 5775 5776 5776 5778 5779 5780 5780 5779 5779 5779 5780 5779 5779 5782 5781 5779 5780 5779 5779 5778 5778 5779 5776 5775 5777 5779 5781 5783 5784 5785 5785 5784 5783 5782 5781 5779 5778 5778 5779 5778
5644 5647 5649 5652 5655 5661 5665 5667 5669 5667 5666 5668 5665 5660 5665 5677 5689 5694 5698 5702 5703 5705 5708 5707 5707 5712 5716 5721 5725 5727 5729 5731 5734 5735 5737 5740 5742 5746 5750 5753 5755 5757 5759 5759 5760 5761 5761 5764 5769 5768 5769 5772 5772 5772 5773 5772 5772 5773 5773 5773 5775 5778 5776 5774 5773 5774 5774 5772 5772 5773 5771 5772 5774 5775 5777 5778 5777 5778 5778 5778 5779 5780 5778 5775 5773 5773 5773 5771
5638 5640 5641 5645 5651 5655 5658 5662 5664 5660 5659 5660 5654 5655 5666 5677 5685 5689 5692 5695 5696 5699 5702 5700 5701 5706 5710 5714 5718 5721 5724 5725 5727 5728 5732 5734 5736 5741 5746 5748 5750 5752 5754 5755 5754 5755 5756 5757 5761 5761 5762 5764 5765 5765 5766 5766 5766 5766 5767 5770 5772 5771 5770 5769 5767 5768 5768 5766 5766 5768 5766 5766 5769 5770 5772 5773 5771 5772 5772 5772 5774 5776 5775 5771 5770 5769 5767 5766
5630 5631 5635 5641 5646 5649 5653 5656 5656 5654 5652 5650 5647 5654 5664 5671 5679 5682 5683 5686 5688 5691 5693 5693 5695 5699 5702 5706 5710 5714 5716 5717 5720 5723 5726 5727 5729 5736 5741 5742 5744 5747 5749 5749 5747 5749 5750 5750 5753 5755 5755 5757 5758 5758 5759 5760 5760 5761 5763 5766 5766 5764 5764 5764 5761 5762 5763 5760 5760 5762 5761 5761 5764 5766 5767 5766 5766 5766 5766 5766 5768 5772 5771 5767 5765 5764 5762 5762
5622 5624 5630 5638 5640 5643 5647 5649 5649 5646 5642 5639 5641 5651 5659 5667 5673 5673 5674 5679 5681 5682 5685 5688 5690 5692 5694 5698 5702 5705 5707 5709 5713 5715 5718 5720 5724 5731 5735 5736 5739 5741 5742 5741 5740 5742 5744 5743 5744 5747 5748 5749 5749 5750 5752 5755 5756 5757 5759 5759 5759 5758 5757 5757 5756 5757 5757 5755 5754 5756 5756 5758 5762 5762 5760 5760 5760 5760 5760 5761 5763 5767 5767 5763 5761 5759 5758 5757
5614 5618 5627 5633 5633 5636 5640 5641 5639 5635 5631 5631 5638 5648 5655 5661 5664 5664 5667 5673 5672 5673 5679 5683 5684 5684 5687 5691 5694 5697 5700 5702 5706 5708 5710 5714 5719 5724 5728 5729 5731 5733 5734 5733 5733 5735 5735 5734 5737 5739 5740 5741 5743 5745 5748 5750 5751 5751 5751 5751 5752 5752 5751 5751 5751 5750 5750 5750 5751 5752 5753 5756 5757 5755 5754 5754 5754 5754 5755 5755 5757 5762 5762 5758 5756 5755 5753 5753
5606 5611 5621 5626 5625 5628 5632 5630 5628 5625 5624 5627 5635 5643 5648 5652 5654 5657 5661 5664 5664 5667 5673 5676 5676 5678 5682 5685 5686 5690 5693 5694 5698 5701 5704 5708 5713 5717 5721 5722 5724 5726 5726 5724 5726 5729 5728 5728 5730 5731 5732 5735 5738 5740 5742 5742 5742 5743 5743 5744 5745 5745 5745 5744 5742 5744 5746 5747 5750 5750 5749 5751 5752 5749 5748 5749 5748 5749 5750 5749 5750 5755 5756 5753 5752 5750 5749 5749
5599 5606 5616 5618 5616 5620 5622 5620 5620 5620 5619 5624 5633 5638 5640 5644 5648 5651 5653 5655 5657 5661 5665 5667 5669 5672 5675 5677 5681 5683 5684 5685 5689 5692 5697 5702 5707 5711 5714 5715 5716 5717 5718 5718 5720 5724 5722 5721 5722 5723 5725 5729 5730 5731 5733 5734 5735 5735 5736 5737 5738 5737 5737 5737 5738 5741 5744 5744 5746 5744 5742 5745 5747 5745 5744 5743 5743 5744 5745 5743 5743 5748 5750 5747 5747 5747 5745 5744
5593 5602 5607 5606 5607 5611 5612 5611 5613 5613 5614 5622 5628 5628 5631 5637 5641 5642 5645 5648 5651 5654 5658 5660 5663 5666 5668 5671 5674 5674 5676 5678 5680 5684 5690 5695 5700 5705 5707 5706 5707 5708 5710 5711 5714 5716 5714 5712 5714 5716 5719 5721 5722 5724 5726 5727 5727 5726 5727 5729 5731 5732 5734 5734 5735 5737 5737 5738 5740 5738 5734 5738 5742 5741 5740 5739 5739 5740 5739 5737 5737 5742 5743 5740 5740 5741 5740 5739
5587 5594 5594 5595 5599 5601 5600 5601 5605 5606 5610 5617 5619 5619 5624 5630 5632 5636 5640 5643 5645 5648 5651 5653 5657 5660 5662 5665 5666 5667 5670 5672 5673 5678 5683 5686 5691 5697 5699 5699 5700 5701 5702 5705 5707 5708 5705 5706 5709 5710 5710 5713 5715 5716 5718 5719 5719 5720 5722 5725 5727 5729 5730 5729 5730 5730 5729 5732 5734 5730 5727 5733 5738 5738 5737 5735 5734 5735 5734 5732 5732 5736 5737 5734 5733 5735 5734 5734
5578 5582 5584 5587 5590 5590 5591 5595 5599 5601 5605 5609 5610 5613 5618 5621 5625 5632 5635 5636 5638 5641 5644 5647 5651 5655 5656 5658 5660 5661 5663 5666 5668 5672 5675 5677 5682 5688 5689 5690 5692 5694 5696 5697 5698 5698 5698 5699 5700 5700 5701 5704 5707 5709 5712 5715 5716 5717 5720 5721 5722 5724 5723 5723 5724 5722 5721 5726 5726 5721 5723 5730 5734 5733 5733 5732 5729 5728 5728 5727 5727 5730 5730 5728 5728 5728 5728 5728
5567 5570 5574 5578 5579 5581 5585 5590 5592 5593 5597 5601 5602 5606 5610 5613 5620 5626 5626 5628 5632 5635 5638 5641 5645 5648 5649 5651 5653 5655 5657 5660 5662 5664 5666 5670 5674 5678 5680 5681 5683 5686 5687 5688 5688 5689 5689 5690 5691 5692 5693 5697 5702 5705 5707 5708 5708 5709 5712 5714 5714 5715 5716 5716 5714 5713 5716 5719 5716 5717 5722 5725 5727 5728 5727 5727 5725 5722 5722 5721 5722 5724 5723 5722 5723 5722 5722 5723
5555 5559 5566 5571 5571 5573 5578 5582 5583 5585 5591 5595 5594 5598 5603 5608 5613 5616 5616 5621 5627 5630 5631 5633 5637 5639 5641 5645 5648 5649 5652 5655 5655 5656 5660 5664 5668 5670 5671 5672 5674 5677 5678 5679 5679 5680 5681 5682 5685 5686 5686 5691 5697 5698 5698 5698 5699 5701 5705 5706 5707 5708 5708 5706 5704 5707 5712 5709 5708 5716 5719 5716 5720 5724 5722 5721 5719 5716 5716 5717 5718 5719 5718 5717 5717 5716 5717 5717
5545 5550 5558 5562 5563 5565 5569 5574 5577 5580 5585 5587 5587 5591 5597 5601 5604 5606 5609 5616 5620 5622 5623 5624 5628 5633 5637 5641 5643 5643 5645 5647 5647 5651 5655 5659 5662 5662 5663 5665 5666 5669 5671 5671 5671 5672 5672 5674 5679 5680 5678 5685 5691 5690 5690 5692 5693 5694 5696 5697 5700 5700 5699 5698 5699 5704 5705 5699 5702 5712 5710 5707 5715 5720 5717 5713 5711 5711 5714 5714 5712 5712 5712 5711 5711 5711 5711 5711
5537 5542 5549 5552 5553 5556 5561 5566 5570 5572 5575 5577 5578 5583 5589 5593 5597 5600 5605 5609 5610 5612 5615 5616 5623 5631 5633 5635 5635 5634 5637 5640 5643 5648 5652 5654 5655 5656 5657 5658 5660 5663 5665 5665 5667 5666 5664 5668 5674 5674 5672 5678 5683 5682 5683 5686 5685 5686 5688 5689 5691 5692 5691 5692 5694 5696 5694 5691 5697 5703 5699 5702 5711 5713 5710 5707 5705 5708 5711 5708 5706 5707 5707 5707 5706 5705 5706 5706
5530 5535 5540 5542 5543 5548 5554 5557 5560 5561 5565 5567 5568 5574 5581 5586 5591 5595 5598 5600 5602 5607 5609 5612 5620 5626 5626 5627 5626 5625 5631 5637 5640 5645 5647 5646 5647 5649 5650 5652 5654 5657 5658 5659 5661 5661 5660 5663 5668 5667 5664 5669 5674 5674 5675 5676 5676 5677 5679 5681 5684 5685 5685 5684 5685 5687 5684 5685 5692 5695 5691 5697 5705 5706 5704 5703 5701 5702 5703 5702 5702 5702 5701 5701 5700 5700 5700 5701
5523 5527 5531 5531 5532 5538 5544 5548 5550 5552 5554 5557 5559 5566 5573 5578 5586 5590 5590 5591 5595 5600 5603 5607 5615 5618 5617 5617 5617 5619 5629 5634 5635 5637 5638 5637 5639 5642 5643 5645 5648 5649 5651 5652 5652 5653 5654 5656 5660 5659 5655 5660 5668 5667 5665 5667 5667 5665 5669 5675 5679 5679 5677 5676 5679 5680 5679 5680 5686 5686 5684 5691 5699 5700 5698 5696 5694 5694 5695 5696 5696 5695 5695 5695 5694 5695 5695 5696
5514 5518 5521 5521 5522 5528 5534 5538 5541 5542 5544 5548 5554 5560 5565 5573 5580 5581 5579 5582 5587 5592 5596 5601 5607 5607 5605 5607 5610 5617 5625 5627 5626 5628 5629 5629 5632 5634 5634 5636 5639 5640 5643 5644 5644 5646 5648 5648 5651 5651 5647 5653 5661 5659 5658 5660 5654 5651 5661 5673 5675 5672 5669 5670 5673 5674 5674 5675 5677 5676 5680 5688 5692 5690 5689 5689 5689 5689 5689 5689 5688 5688 5689 5689 5689 5690 5690 5690